Regional Weather Roundup
Issued by NWS

Home | Current Version | Previous Version | Text Only | Print | Product List | Glossary On
Versions: 1 2 3 4 5 6 7 8 9 10 11 12 13 14 15 16 17 18 19 20 21 22 23 24 25 26 27 28 29 30 31 32 33 34 35 36 37 38 39 40 41 42 43 44 45 46 47 48 49 50
000
ASPQ40 PGUM 290012
RWRPQ
WEATHER ROUNDUP FOR THE MARIANAS AND MICRONESIA
NATIONAL WEATHER SERVICE TIYAN GU
1000 AM CHST SAT NOV 29 2014

GUZ001>004-290100-
MARIANA ISLANDS-

CITY           SKY/WX    TMP DP  RH WIND       PRES   REMARKS
GUAM AIRPORT   SUNNY     88  72  58 NE17G28   29.91S HX  94
ANDERSEN AFB   SUNNY     84  73  70 E17       29.91S HX  91
ROTA AIRPORT   MOSUNNY   82  73  74 E17G23    29.91F
TINIAN AP      MOSUNNY   82  75  78 E20G25    29.89F
SAIPAN AP      MOSUNNY   82  77  83 E17G32    29.91F HX  91

$$

PMZ161-290100-
REPUBLIC OF PALAU-

CITY           SKY/WX    TMP DP  RH WIND       PRES   REMARKS
KOROR AP       CLOUDY    84  81  89 E14G21    29.81R HX  98
KOROR WSO      CLOUDY    86  79  79 E14       29.80S HX  99

$$

PMZ171>174-290100-
FEDERATED STATES OF MICRONESIA-

CITY           SKY/WX    TMP DP  RH WIND       PRES   REMARKS
YAP AIRPORT    CLOUDY    86  79  79 NE9       29.84R HX  99
CHUUK AP       NOT AVBL
POHNPEI AP     CLOUDY    84  77  79 S9        29.73F HX  94
POHNPEI WSO    CLOUDY    82  77  83 NE6       29.77F HX  91
KOSRAE AP      CLOUDY    82  75  78 W5        29.74F

$$

PMZ181-290100-
REPUBLIC OF THE MARSHALL ISLANDS-

CITY           SKY/WX    TMP DP  RH WIND       PRES   REMARKS
KWAJALEIN AP   MOSUNNY   88  77  70 E21       29.73F HX 100
MAJURO AP      NOT AVBL
MAJURO WSO     PTSUNNY   88  79  74 NE10      29.71F HX 102

$$



USA.gov is the U.S. government's official web portal to all federal, state and local government web resources and services.